sat.trackr.live / text

‹ back to catalog

STARLINK-36207

NORAD 67014 · 2025-293M

PAYLOAD ACTIVE UNKNOWN

§ Identity

Operator
Country
US
Launch date
2025-12-10
Launch site
AFWTR
Launch vehicle
Mass (kg)
RCS (m²)

Purposes: comms

External: N2YO · Heavens-Above · Gunter

§ Orbital elements

Epoch: 2026-05-25T01:08:23.928288Z

Period
96.11 min
Inclination
70.0004°
Eccentricity
0.0003127
Mean motion
14.98335330 rev/d
Perigee alt
569.9 km
Apogee alt
574.2 km
Semi-major
6,950.2 km
B*
2.6440e-4
RAAN
262.0014°
Arg perigee
268.4957°
Mean anomaly
91.5844°
Rev number
2,632

§ Raw data

STARLINK-362071 67014U 25293M   26145.04749917  .00003064  00000+0  26440-3 0  99992 67014  70.0004 262.0014 0003127 268.4957  91.5844 14.98335330 26323

JSON: /api/v1/satellites/67014 · /tle

For live sub-satellite position, see the globe view (requires WebGL).

§ Visibility from observer

Set your observer location to see the next 7 days of passes ≥ 10°. The values pass through the URL so the page stays shareable.

No JS? Fill the form by hand. The geolocation button needs JavaScript.